When you browse on this site, cookies collect data to enhance your experience and personalize the content and advertising you see.
Visit our Privacy Policy to learn more. By continuing to use the site, you agree to this use of cookies and data.
  • En España
  • Lista de países
  • Para 7 días
  • Temperatura del agua
  • El tiempo en el mapa
  • Informadores
  • user-avatar
    Iniciar sesión

    Tiempo cada hora Poltevo

    Hoy, 29 Enero, Miércoles

    Tiempo Temperatura Precipitaciones Viento Presión Humedad
    00:00 -4°C° 0 mm 3 mps 736 mmHg 96%
    01:00 -4°C° 0 mm 3 mps 736 mmHg 96%
    02:00 -2°C° 0 mm 3 mps 735 mmHg 96%
    03:00 -4°C° 0 mm 3 mps 735 mmHg 95%
    04:00 -4°C° 0 mm 3 mps 735 mmHg 94%
    05:00 -4°C° 0 mm 3 mps 734 mmHg 93%
    06:00 -5°C° 0 mm 3 mps 734 mmHg 93%
    07:00 -5°C° 0 mm 3 mps 734 mmHg 93%
    08:00 -6°C° 0 mm 3 mps 734 mmHg 92%
    09:00 -5°C° 0 mm 3 mps 734 mmHg 93%
    10:00 -4°C° 0 mm 3 mps 733 mmHg 95%
    11:00 -2°C° 0 mm 3 mps 733 mmHg 96%
    12:00 -2°C° 0.1 mm 3 mps 733 mmHg 97%
    13:00 -1°C° 0.1 mm 3 mps 733 mmHg 98%
    14:00 -1°C° 0.1 mm 3 mps 733 mmHg 99%
    15:00 -1°C° 0 mm 3 mps 732 mmHg 99%
    16:00 0°C° 0 mm 3 mps 732 mmHg 99%
    17:00 -1°C° 0 mm 4 mps 731 mmHg 99%
    18:00 -1°C° 0 mm 4 mps 731 mmHg 99%
    19:00 -1°C° 0 mm 4 mps 731 mmHg 98%
    20:00 -1°C° 0 mm 4 mps 731 mmHg 98%
    21:00 -1°C° 0.1 mm 4 mps 730 mmHg 98%
    22:00 -1°C° 0.1 mm 4 mps 730 mmHg 98%
    23:00 -1°C° 0.1 mm 4 mps 729 mmHg 98%

    Mañana, 30 Enero, Jueves

    Tiempo Temperatura Precipitaciones Viento Presión Humedad
    00:00 -1°C° 0.1 mm 4 mps 728 mmHg 98%
    01:00 -1°C° 0.1 mm 5 mps 728 mmHg 98%
    02:00 -1°C° 0.1 mm 5 mps 727 mmHg 98%
    03:00 -1°C° 0.1 mm 5 mps 727 mmHg 98%
    04:00 -2°C° 0.1 mm 6 mps 726 mmHg 98%
    05:00 -2°C° 0.1 mm 6 mps 725 mmHg 99%
    06:00 -2°C° 0.9 mm 6 mps 725 mmHg 97%
    07:00 -3°C° 0.9 mm 6 mps 725 mmHg 95%
    08:00 -3°C° 0.9 mm 6 mps 725 mmHg 93%
    09:00 -3°C° 0 mm 6 mps 725 mmHg 91%
    10:00 -3°C° 0 mm 7 mps 725 mmHg 89%
    11:00 -3°C° 0 mm 7 mps 725 mmHg 86%
    12:00 -3°C° 0 mm 7 mps 725 mmHg 86%
    13:00 -3°C° 0 mm 7 mps 725 mmHg 85%
    14:00 -3°C° 0 mm 7 mps 725 mmHg 85%
    15:00 -4°C° 0.1 mm 8 mps 725 mmHg 88%
    16:00 -5°C° 0.1 mm 8 mps 725 mmHg 91%
    17:00 -5°C° 0.1 mm 8 mps 724 mmHg 93%
    18:00 -5°C° 0.6 mm 8 mps 724 mmHg 95%
    19:00 -4°C° 0.6 mm 8 mps 724 mmHg 96%
    20:00 -4°C° 0.6 mm 8 mps 724 mmHg 97%
    21:00 -3°C° 0.5 mm 7 mps 724 mmHg 97%
    22:00 -4°C° 0.5 mm 7 mps 723 mmHg 97%
    23:00 -4°C° 0.5 mm 6 mps 723 mmHg 96%

    Pasado mañana, 31 Enero, Viernes

    Tiempo Temperatura Precipitaciones Viento Presión Humedad
    00:00 -4°C° 0.4 mm 6 mps 723 mmHg 96%
    01:00 -4°C° 0.4 mm 6 mps 724 mmHg 96%
    02:00 -4°C° 0.4 mm 6 mps 724 mmHg 96%
    03:00 -4°C° 0.2 mm 6 mps 724 mmHg 96%
    04:00 -5°C° 0.2 mm 6 mps 724 mmHg 95%
    05:00 -6°C° 0.2 mm 7 mps 724 mmHg 94%
    06:00 -5°C° 0.1 mm 6 mps 725 mmHg 93%
    07:00 -5°C° 0.1 mm 6 mps 725 mmHg 92%
    08:00 -5°C° 0.1 mm 6 mps 726 mmHg 91%
    09:00 -5°C° 0 mm 5 mps 726 mmHg 90%
    10:00 -4°C° 0 mm 5 mps 727 mmHg 89%
    11:00 -4°C° 0 mm 5 mps 727 mmHg 88%
    12:00 -3°C° 0.1 mm 4 mps 728 mmHg 90%
    13:00 -3°C° 0.1 mm 4 mps 728 mmHg 93%
    14:00 -2°C° 0.1 mm 4 mps 729 mmHg 95%
    15:00 -3°C° 0.1 mm 4 mps 729 mmHg 95%
    16:00 -3°C° 0.1 mm 4 mps 729 mmHg 94%
    17:00 -3°C° 0.1 mm 4 mps 729 mmHg 93%
    18:00 -3°C° 0 mm 4 mps 729 mmHg 93%
    19:00 -4°C° 0 mm 3 mps 730 mmHg 93%
    20:00 -4°C° 0 mm 3 mps 730 mmHg 92%
    21:00 -3°C° 0 mm 2 mps 730 mmHg 93%
    22:00 -3°C° 0 mm 2 mps 730 mmHg 93%
    23:00 -3°C° 0 mm 2 mps 730 mmHg 93%

    1 Febrero, Sábado

    Tiempo Temperatura Precipitaciones Viento Presión Humedad
    00:00 -1°C° 0 mm 1 mps 731 mmHg 93%
    01:00 -2°C° 0 mm 1 mps 731 mmHg 94%
    02:00 -2°C° 0 mm 1 mps 731 mmHg 94%
    03:00 -3°C° 0 mm 1 mps 731 mmHg 94%
    04:00 -3°C° 0 mm 1 mps 732 mmHg 94%
    05:00 -4°C° 0 mm 1 mps 732 mmHg 95%
    06:00 -4°C° 0 mm 1 mps 732 mmHg 94%
    07:00 -4°C° 0 mm 1 mps 732 mmHg 94%
    08:00 -4°C° 0 mm 1 mps 733 mmHg 93%
    09:00 -4°C° 0 mm 0 mps 733 mmHg 93%
    10:00 -3°C° 0 mm 0 mps 733 mmHg 92%
    11:00 -2°C° 0 mm 0 mps 734 mmHg 91%
    12:00 -2°C° 0 mm 0 mps 734 mmHg 92%
    13:00 -2°C° 0 mm 0 mps 734 mmHg 92%
    14:00 -2°C° 0 mm 0 mps 734 mmHg 93%
    15:00 -3°C° 0 mm 0 mps 734 mmHg 93%
    16:00 -4°C° 0 mm 0 mps 735 mmHg 93%
    17:00 -5°C° 0 mm 0 mps 735 mmHg 92%
    18:00 -5°C° 0 mm 0 mps 735 mmHg 92%
    19:00 -4°C° 0 mm 1 mps 735 mmHg 92%
    20:00 -4°C° 0 mm 1 mps 735 mmHg 93%
    21:00 -4°C° 0 mm 1 mps 735 mmHg 93%
    22:00 -5°C° 0 mm 2 mps 735 mmHg 94%
    23:00 -5°C° 0 mm 2 mps 735 mmHg 95%

    2 Febrero, Domingo

    Tiempo Temperatura Precipitaciones Viento Presión Humedad
    00:00 -4°C° 0 mm 2 mps 735 mmHg 95%
    01:00 -4°C° 0 mm 2 mps 735 mmHg 96%
    02:00 -3°C° 0 mm 2 mps 736 mmHg 96%
    03:00 -4°C° 0 mm 3 mps 735 mmHg 95%
    04:00 -4°C° 0 mm 3 mps 735 mmHg 95%
    05:00 -5°C° 0 mm 4 mps 735 mmHg 94%
    06:00 -4°C° 0 mm 4 mps 734 mmHg 94%
    07:00 -5°C° 0 mm 5 mps 734 mmHg 94%
    08:00 -4°C° 0 mm 5 mps 734 mmHg 93%
    09:00 -4°C° 0.1 mm 6 mps 734 mmHg 94%
    10:00 -3°C° 0.1 mm 7 mps 733 mmHg 94%
    11:00 -3°C° 0.1 mm 7 mps 733 mmHg 95%
    12:00 -3°C° 0 mm 7 mps 733 mmHg 96%
    13:00 -2°C° 0 mm 7 mps 732 mmHg 98%
    14:00 -2°C° 0 mm 7 mps 732 mmHg 99%
    15:00 -2°C° 0.4 mm 7 mps 731 mmHg 99%
    16:00 -2°C° 0.4 mm 7 mps 731 mmHg 98%
    17:00 -1°C° 0.4 mm 7 mps 730 mmHg 98%
    18:00 -1°C° 0.6 mm 7 mps 729 mmHg 98%
    19:00 -1°C° 0.6 mm 7 mps 729 mmHg 98%
    20:00 -1°C° 0.6 mm 7 mps 728 mmHg 98%
    21:00 -1°C° 0.6 mm 6 mps 728 mmHg 98%
    22:00 0°C° 0.6 mm 5 mps 728 mmHg 99%
    23:00 0°C° 0.6 mm 5 mps 728 mmHg 99%

    3 Febrero, Lunes

    Tiempo Temperatura Precipitaciones Viento Presión Humedad
    00:00 -1°C° 0.1 mm 5 mps 728 mmHg 98%
    01:00 -1°C° 0.1 mm 5 mps 729 mmHg 97%
    02:00 -1°C° 0.1 mm 4 mps 729 mmHg 96%
    03:00 -1°C° 0 mm 4 mps 729 mmHg 96%
    04:00 -1°C° 0 mm 4 mps 728 mmHg 96%
    05:00 -1°C° 0 mm 5 mps 728 mmHg 96%
    06:00 -1°C° 0.1 mm 4 mps 728 mmHg 97%
    07:00 -1°C° 0.1 mm 4 mps 728 mmHg 97%
    08:00 0°C° 0.1 mm 3 mps 728 mmHg 98%
    09:00 -1°C° 0.1 mm 4 mps 728 mmHg 98%
    10:00 -1°C° 0.1 mm 4 mps 728 mmHg 99%
    11:00 -1°C° 0.1 mm 4 mps 728 mmHg 99%
    12:00 -1°C° 0.1 mm 4 mps 728 mmHg 99%
    13:00 -1°C° 0.1 mm 4 mps 728 mmHg 99%
    14:00 -1°C° 0.1 mm 4 mps 727 mmHg 99%
    15:00 -1°C° 0.1 mm 4 mps 728 mmHg 98%
    16:00 -1°C° 0.1 mm 4 mps 728 mmHg 98%
    17:00 -1°C° 0.1 mm 4 mps 728 mmHg 97%
    18:00 -2°C° 0 mm 4 mps 729 mmHg 95%
    19:00 -2°C° 0 mm 4 mps 729 mmHg 94%
    20:00 -3°C° 0 mm 4 mps 729 mmHg 92%
    21:00 -4°C° 0 mm 4 mps 730 mmHg 92%
    22:00 -4°C° 0 mm 4 mps 730 mmHg 92%
    23:00 -5°C° 0 mm 3 mps 731 mmHg 93%
    Mostrar más